Hundvaag 1 weather for Apr 1989
Month no. 22
Obs.
Da.
Temp. Dew Point Precip. Wind
Speed
Wind gusts Cloud cover Press. Humidity Wind dir. Sunny OPT
01.04.1989 7,2   2,6             1  
02.04.1989 2,7   0,0             1  
03.04.1989 -1,2   0,0             1  
04.04.1989 -0,2   0,0             1  
05.04.1989 0,2   0,0             1  
06.04.1989 4,5   0,0                
07.04.1989 5,4   2,4                
08.04.1989 6,2   1,0                
09.04.1989 7,4   11,7             1  
10.04.1989 4,3   2,5                
11.04.1989 5,5   10,5             1  
12.04.1989 7,6   16,4             1  
13.04.1989 6,8   1,4                
14.04.1989 8,0   2,7             1  
15.04.1989 13,6   1,0                
16.04.1989 8,7   3,1             1  
17.04.1989 5,5   1,5                
18.04.1989 2,7   12,3             1  
19.04.1989 2,5   1,1             1  
20.04.1989 3,0   3,9             1  
21.04.1989 6,2   1,4             1  
22.04.1989 3,4   0,0             1  
23.04.1989 2,3   1,8             1  
24.04.1989 0,8   4,0                
25.04.1989 2,7   1,5                
26.04.1989 0,2   2,5             1  
27.04.1989 2,9   0,9             1  
28.04.1989 3,7   0,0             1  
29.04.1989 5,5   0,0             1  
30.04.1989 6,9   0,0             1  
                       
Avrg/Sum 4,5   86,2             21